This is the latest recevied weather packets stored in our database for station/object KJ5MET. If no packets are shown the sender has not sent any weather packets the latest 10 day(s).
| Time | Temp. | Humidity | Pressure | Rain* | Wind** | Luminosity | Snow |
|---|---|---|---|---|---|---|---|
| 1788043669 | 35.56° C | 53% | 1012.2 hPa | 0 mm | - | - | - |
| 1788043366 | 35.56° C | 51% | 1012.2 hPa | 0 mm | - | - | - |
| 1788043062 | 36.11° C | 51% | 1012.2 hPa | 0 mm | - | - | - |
| 1788042758 | 35° C | 54% | 1012.2 hPa | 0 mm | - | - | - |
| 1788042454 | 35.56° C | 52% | 1012.2 hPa | 0 mm | - | - | - |
| 1788042131 | 35.56° C | 53% | 1012.2 hPa | 0 mm | - | - | - |
| 1788041828 | 35° C | 53% | 1012.2 hPa | 0 mm | - | - | - |
| 1788041509 | 35.56° C | 52% | 1012.2 hPa | 0 mm | - | - | - |
| 1788041205 | 35.56° C | 53% | 1012.2 hPa | 0 mm | - | - | - |
| 1788040902 | 36.11° C | 52% | 1012.2 hPa | 0 mm | - | - | - |
| 1788040598 | 35.56° C | 50% | 1012.2 hPa | 0 mm | - | - | - |
| 1788040295 | 36.11° C | 47% | 1012.2 hPa | 0 mm | - | - | - |
| 1788039991 | 36.67° C | 47% | 1012.2 hPa | 0 mm | - | - | - |
| 1788039688 | 36.11° C | 48% | 1012.2 hPa | 0 mm | - | - | - |
| 1788039384 | 36.67° C | 49% | 1012.5 hPa | 0 mm | - | - | - |
| 1788039080 | 36.11° C | 47% | 1012.5 hPa | 0 mm | - | - | - |
| 1788038761 | 36.67° C | 47% | 1012.5 hPa | 0 mm | - | - | - |
| 1788038443 | 36.11° C | 47% | 1012.5 hPa | 0 mm | - | - | - |
| 1788038139 | 36.67° C | 49% | 1012.5 hPa | 0 mm | - | - | - |
| 1788037835 | 36.67° C | 50% | 1012.5 hPa | 0 mm | - | - | - |
| 1788037517 | 36.67° C | 50% | 1012.5 hPa | 0 mm | - | - | - |
| 1788037198 | 36.11° C | 50% | 1012.9 hPa | 0 mm | - | - | - |
| 1788036894 | 36.67° C | 47% | 1012.9 hPa | 0 mm | - | - | - |
| 1788036590 | 36.67° C | 50% | 1013.2 hPa | 0 mm | - | - | - |
| 1788036287 | 36.67° C | 51% | 1013.2 hPa | 0 mm | - | - | - |
* Rain latest hour (hover to see other rain measurements)
** Current wind speed in m/s (hover to see current wind gust speed)